Simultaneous Nadir Overpasses (SNOs) Predictions

Prediction of SNOs between METOP-A and NOAA-19 Satellite Orbit:

Table of predicted SNOs for the next 14.0 days since TLE Epoch: 11/16/2012
Index Date (METOP-A) Time (METOP-A) METOP-A Lat,Lon Date (NOAA-19) Time (NOAA-19) NOAA-19 Lat,Lon Distance(km) Time Diff (sec)
1 11/20/2012 19:06:19 -73.59, 66.94 11/20/2012 19:05:08 -73.61, 65.38 49.10 71
2 11/20/2012 19:57:05 73.26,-126.47 11/20/2012 19:56:00 73.23,-126.49 3.38 65
3 11/20/2012 20:47:48 -73.21, 40.75 11/20/2012 20:47:05 -73.22, 40.76 0.69 43
4 11/20/2012 21:38:28 73.18,-151.98 11/20/2012 21:38:04 73.18,-151.91 2.41 24
5 11/20/2012 22:29:10 -73.18, 15.35 11/20/2012 22:29:09 -73.17, 15.35 1.47 1
6 11/20/2012 23:19:50 73.15,-177.39 11/20/2012 23:20:08 73.14,-177.32 2.66 18
7 11/21/2012 00:10:32
